Weather History for Taunton, MA

Change the Weather History Date:

Sunday, March 3, 2013

  Actual Average Record
Temperature  
Mean Temperature 39 °F -  
Max Temperature 44 °F 42 °F 65 °F (1991)
Min Temperature 33 °F 25 °F 4 °F (1950)
Degree Days  
Heating Degree Days 26    
Moisture  
Dew Point 26 °F    
Average Humidity 63    
Maximum Humidity 82    
Minimum Humidity 45    
Precipitation  
Precipitation 0.00 in - - ()
Sea Level Pressure  
Sea Level Pressure 29.60 in    
Wind  
Wind Speed 5 mph (NW)    
Max Wind Speed 12 mph    
Max Gust Speed 16 mph    
Visibility 10 miles    
Events Snow    
Averages and records for this station are not official NWS values.
T = Trace of Precipitation, MM = Missing Value Source: NWS Daily Summary

Daily Weather History Graph

Daily Weather History Graph

Search for Another Location

Airport:

Trip Planner

Search our weather history database for the weather conditions in past years. The results will help you decide how hot, cold, wet, or windy it might be!

Date:

Astronomy

Mar. 03, 2013 Rise Set
Actual Time 6:15 AM EST 5:37 PM EST
Civil Twilight 5:47 AM EST 6:04 PM EST
Nautical Twilight 5:15 AM EST 6:37 PM EST
Astronomical Twilight 4:43 AM EST 7:09 PM EST
Moon No Moon Rise 9:21 AM EST (3/3)
Length of Visible Light 12h 17m
Length of Day
11h 21m
Waning Gibbous, 64% of the Moon is Illuminated
Mar 3
Waning Gibbous
Mar 4
Last Quarter
Mar 11
New
Mar 19
First Quarter
Mar 27
Full

Hourly Weather History & Observations

Time (EST) Temp. Windchill Dew Point Humidity Pressure Visibility Wind Dir Wind Speed Gust Speed Precip Events Conditions
12:52 AM 37.0 °F 32.4 °F 23.0 °F 57% 29.64 in 10.0 mi NNW 5.8 mph - N/A   Overcast
1:52 AM 37.0 °F 34.5 °F 24.1 °F 59% 29.63 in 10.0 mi NW 3.5 mph - N/A   Overcast
2:52 AM 36.0 °F 32.1 °F 24.1 °F 62% 29.62 in 10.0 mi NW 4.6 mph - N/A   Overcast
3:52 AM 36.0 °F 31.1 °F 24.1 °F 62% 29.62 in 10.0 mi NW 5.8 mph - N/A   Overcast
4:52 AM 35.1 °F - 24.1 °F 64% 29.62 in 10.0 mi Calm Calm - N/A   Overcast
5:52 AM 35.1 °F 31.0 °F 24.1 °F 64% 29.62 in 10.0 mi NW 4.6 mph - N/A   Overcast
6:52 AM 35.1 °F 30.1 °F 23.0 °F 61% 29.63 in 10.0 mi NW 5.8 mph - N/A   Overcast
7:52 AM 35.1 °F 30.1 °F 23.0 °F 61% 29.63 in 10.0 mi Variable 5.8 mph - N/A   Overcast
8:52 AM 37.0 °F 32.4 °F 23.0 °F 57% 29.63 in 10.0 mi North 5.8 mph - N/A   Overcast
9:52 AM 39.0 °F 34.8 °F 24.1 °F 55% 29.62 in 10.0 mi Variable 5.8 mph - N/A   Overcast
10:52 AM 39.9 °F 35.8 °F 24.1 °F 53% 29.60 in 10.0 mi West 5.8 mph - N/A   Overcast
11:52 AM 42.1 °F 40.2 °F 25.0 °F 51% 29.59 in 10.0 mi WSW 3.5 mph - N/A   Overcast
12:52 PM 44.1 °F 40.1 °F 25.0 °F 47% 29.57 in 10.0 mi Variable 6.9 mph - N/A   Overcast
1:52 PM 44.1 °F 40.8 °F 24.1 °F 45% 29.55 in 10.0 mi NW 5.8 mph - N/A   Overcast
2:52 PM 44.1 °F - 24.1 °F 45% 29.55 in 10.0 mi Calm Calm - N/A   Overcast
3:52 PM 43.0 °F 38.8 °F 25.0 °F 49% 29.55 in 10.0 mi WNW 6.9 mph - N/A   Overcast
5:52 PM 41.0 °F 38.0 °F 27.0 °F 57% 29.57 in 10.0 mi WNW 4.6 mph - N/A   Overcast
6:52 PM 39.0 °F 32.3 °F 28.0 °F 65% 29.59 in 10.0 mi NW 10.4 mph - N/A   Overcast
7:52 PM 37.0 °F 29.8 °F 28.0 °F 70% 29.60 in 10.0 mi NW 10.4 mph - N/A   Overcast
8:52 PM 36.0 °F 28.0 °F 28.9 °F 76% 29.61 in 9.0 mi NW 11.5 mph 16.1 mph 0.00 in Snow Light Snow
9:43 PM 35.1 °F 29.3 °F 30.0 °F 82% 29.61 in 8.0 mi WNW 6.9 mph - 0.00 in Snow Light Snow
9:52 PM 35.1 °F 28.6 °F 30.0 °F 82% 29.61 in 9.0 mi WNW 8.1 mph - 0.00 in   Overcast
10:14 PM 34.0 °F 28.8 °F 28.9 °F 82% 29.60 in 8.0 mi WNW 5.8 mph - N/A   Overcast
10:52 PM 34.0 °F 28.8 °F 28.0 °F 79% 29.60 in 7.0 mi West 5.8 mph - 0.00 in Snow Light Snow
11:52 PM 33.1 °F 27.7 °F 28.0 °F 82% 29.60 in 9.0 mi WNW 5.8 mph - 0.00 in   Overcast